STARLINK-11490, 62219

Orbit data source: Space-Track

STARLINK-11490, 62219 is a payload satellite owned by SpaceX/Seattle (US) in LEO that was launched on Thu, 05 Dec 2024 UTC via an FALCON 9 launch vehicle from the Air Force Western Test Range (AFWTR). Payload-class satellites include a variety of spacecraft equipped with specific instruments for various scientific and technological missions. These include communications satellites like Starlink; space stations such as the ISS; scientific satellites like the Hubble; Earth observation satellites from companies like Planet Labs, Umbra, and HawkEye 360; GPS; miniature CubeSats for education and research; and military/defense satellites.

Loading next visibility...
Identifier
62219, 2024-231B
Orbit
LEO
Last TLE update
20 hours ago
Origin
Manufacturer
SpaceX/Seattle
Mission
Operational Commercial Communications
Bus & Motor
STARLINK V2M, Unknown motor
Mass
730 kg wet, ~700 kg dry
Launch date (UTC)
2024-12-05 (7 months ago)
Launch vehicle
FALCON 9
Launch site
Air Force Western Test Range (AFWTR)
Object type
Payload
Rocket body
Debris
Shape & HBR
Box + 2 Pan, 29 m
Radar Cross Section
36.964 m², Large (>1 m²)

Expand to show TLE details & history

TLE from 20 hours ago
0 STARLINK-11490
1 62219U 24231B   25181.57867472  .00163285  00000-0  13240-2 0  9992
2 62219  53.1560 264.1551 0001886  26.6903 333.4212 15.69750714 33824
Epoch: 2025-06-30T13:53Z
TLE epoch observation values (Epoch: 2025-06-30T13:53:17.495Z)
Latitude
-0.00001°
Longitude
136.94573°
Altitude
359.389 km
Speed
7.695 km/s
True Right ascension
17h 36m 37s
True Declination
0° 00' 00"
Sunlit
Object was in full shadow at epoch
Visualization orbit readout
Latitude
-35.36577°
Longitude
100.97635°
Altitude
369.768 km
Speed
7.688 km/s
Apparent Right ascension
12h 25m 39s
Apparent Declination
-47° 15' 11"
Sunlit
Object is in full shadow
Visualization observer readout
Local Sidereal Time
21:11:36
Azimuth
241.618° WSW
Elevation
-54.695°
Doppler factor
1
Orbital elements
Apogee altitude
361.142 km
Perigee altitude
358.601 km
Semi-major axis
6,738.009 km
Eccentricity
0.00019
Inclination
53.156°
RAAN
264.1551°
Arg. of periapsis
26.6903°
True anomaly
Unknown
Mean anomaly
333.4212°
Eccentric anomaly
Unknown
Mean motion
3.92415 °/min
Orbital period
91.74 mins
BSTAR
0.001324
Loading maneuver chart data...
Loading SW <> Apogee altitude chart data...
Loading historical data...
Loading historical data...
Loading historical data...
Loading historical data...
Loading historical data...
Loading historical data...
Loading historical data...

STARLINK-11490 Visibility forecast

Observer location: undefined°, undefined°

Span
Click to sort rows by Start time (UTC) header in descending order
Start Az.
Max El. time (UTC)
Max El. Az.
Max El.
End time (UTC)
End Az.
4 mins2025-07-01 14:50:18.436Z319.753° NNW2025-07-01 14:52:18.436Z91.162° ESE39.964°2025-07-01 14:54:18.436Z121.715° SE
|